Location: Ku?niki
(51.4449°N, 17.8974°E)
Time: 05:48:22
(UTC+00:00)

USA 234 - Pass Details

Date: 18 September 2020
Orbit: 1102 x 1106 km, 123.0° (Epoch: 16 October)

Event Time Altitude Azimuth Distance (km) Brightness Sun altitude
Exits shadow 18:31:47 - 59° (ENE) 3,833 5.8 -15.5°
Reaches altitude 10° 18:34:14 10° 67° (ENE) 2,967 5.1 -15.8°
Maximum altitude 18:40:16 38° 134° (SE) 1,614 3.7 -16.7°
Drops below altitude 10° 18:46:17 10° 201° (SSW) 2,957 5.5 -17.5°
Sets 18:48:58 0° 209° (SSW) 3,912 6.2 -17.9°
